Wind_Speed
20 20 20 19 19 18 17 16 13 11 11 11 12 12 11 11 12 13 13 13 13 14 14 14 13 14 14 15 16 16 16 16 16 16 16 15 15 14 14 14 14 14 14 14 15 15 15 17 17 17 17 17 17 18 18 17 17 18 17 16 15 13 11 11 13 16 18 18 16 15 14 13 15 17 18 17 15 16 14 11 10 10 10 8 3 2 7
22 22 22 21 21 20 19 18 16 13 11 10 10 10 10 11 12 13 14 14 14 15 15 15 13 13 14 15 16 17 17 18 18 18 18 18 17 16 16 16 16 17 17 16 17 18 16 16 17 17 16 16 17 17 16 16 17 16 14 13 13 12 10 10 9 9 12 14 13 12 13 14 15 15 14 14 14 14 14 13 13 13 14 15 10 5 9
22 22 22 22 21 21 20 19 18 16 13 11 10 9 10 10 12 13 14 14 14 15 17 17 15 15 15 15 16 17 17 18 19 19 20 20 20 19 19 19 18 18 18 18 18 20 19 17 17 17 16 16 17 18 17 17 16 15 14 13 14 15 15 14 11 6 6 8 8 10 12 12 13 13 12 12 13 13 13 12 12 11 11 16 17 11 11
22 21 21 20 20 20 20 20 19 18 16 13 12 11 10 10 11 12 13 13 14 16 17 17 17 17 17 17 18 19 18 18 19 19 19 20 20 20 20 19 18 18 18 18 19 21 21 20 18 17 17 16 17 18 18 16 15 14 14 14 14 17 18 18 18 17 16 16 15 15 15 15 15 15 15 14 14 15 14 13 13 12 11 16 20 15 11
21 20 20 19 19 19 19 19 18 17 17 16 14 13 12 12 12 12 12 12 12 15 17 17 18 18 18 18 18 19 19 18 19 19 19 19 20 19 18 18 18 18 19 19 19 20 20 20 20 20 19 18 17 18 17 16 15 14 13 12 13 17 19 19 21 22 21 19 17 16 17 18 19 18 17 16 15 16 18 17 17 17 14 16 20 18 17
21 20 19 18 18 17 18 18 17 16 15 15 15 14 13 13 13 13 13 13 13 13 15 16 17 17 18 18 18 19 19 20 20 20 19 19 19 18 17 16 16 17 18 18 17 17 18 19 19 19 19 19 17 17 17 16 15 14 13 12 14 16 18 19 20 22 21 18 16 15 16 18 19 20 20 20 19 20 21 22 22 20 19 22 23 22 23
21 20 20 19 18 17 16 17 17 15 14 13 13 13 13 14 14 14 15 16 16 16 16 17 17 18 18 19 20 20 20 20 21 20 19 18 18 17 16 16 16 16 16 16 15 15 15 16 16 17 17 17 17 18 18 18 18 18 16 15 16 17 17 17 18 20 21 19 17 16 18 19 21 22 22 23 23 24 23 23 22 21 23 27 26 25 27
21 21 20 19 18 17 16 16 16 15 14 12 11 12 12 13 14 15 16 17 18 19 19 18 18 18 18 18 19 19 19 18 18 18 18 18 17 18 17 17 17 16 16 16 15 14 15 15 15 16 16 16 17 18 19 20 21 22 21 19 19 20 19 18 19 23 25 23 20 20 21 22 23 24 24 25 26 27 27 26 24 24 27 29 28 30 32
22 22 22 21 19 18 17 15 15 15 13 12 10 10 10 11 13 14 15 16 17 18 18 18 18 17 17 17 17 17 16 15 15 16 17 18 18 18 18 18 18 17 16 17 16 16 16 15 15 16 16 17 18 18 19 21 23 24 23 21 21 21 22 22 21 24 28 25 22 23 23 25 29 30 27 25 27 29 30 30 29 29 30 30 30 33 33
23 22 22 22 20 19 17 16 15 14 13 12 10 9 10 10 11 12 13 14 15 16 16 16 16 16 16 15 15 14 14 14 14 14 15 16 16 17 17 17 17 17 17 17 17 17 17 17 17 18 18 19 19 20 21 22 22 22 22 22 22 21 23 23 19 20 25 24 20 22 21 20 26 31 29 28 30 31 32 32 32 29 28 29 30 31 29
22 22 22 22 21 20 19 17 15 14 13 12 10 9 9 10 10 11 12 13 14 14 15 15 15 15 15 15 14 14 14 14 14 14 14 15 15 15 16 15 16 17 18 18 18 18 18 18 18 19 20 21 22 23 23 21 19 19 20 21 22 21 21 21 17 18 22 20 16 15 13 12 19 24 23 24 25 26 29 30 28 26 26 27 28 28 28
22 21 21 21 21 20 19 18 16 15 13 12 11 10 10 9 9 10 11 12 13 13 14 14 14 14 14 14 15 15 15 15 15 15 16 16 16 16 17 16 16 17 18 19 18 19 19 19 19 20 20 22 22 21 21 21 18 18 18 18 17 16 16 16 15 17 20 19 12 7 8 13 19 20 17 16 15 15 19 21 22 23 24 24 25 27 27
22 21 21 21 21 20 20 19 17 16 15 14 13 12 11 11 10 10 11 11 12 12 13 13 14 14 14 14 15 15 15 15 15 15 16 16 16 17 18 18 18 18 19 19 19 19 19 19 19 20 19 19 20 20 20 18 14 12 13 13 12 11 10 12 13 14 15 13 9 7 8 12 13 13 12 13 14 15 17 18 20 22 22 22 23 24 22
22 22 22 21 21 20 20 19 18 17 15 14 13 13 12 12 11 11 11 12 11 12 12 13 13 14 14 14 15 15 15 14 14 15 15 15 15 16 17 18 18 19 19 19 19 19 19 18 18 18 18 16 15 13 12 10 9 10 11 12 12 11 10 11 12 12 12 12 12 14 16 16 14 14 14 14 16 17 18 18 17 17 18 19 20 20 19
23 23 23 22 21 21 20 19 18 17 16 15 14 13 12 12 12 12 12 12 12 12 13 13 12 13 13 13 14 14 14 14 14 14 15 16 16 16 17 18 19 19 19 19 19 18 17 17 16 16 15 12 11 9 9 9 10 11 12 12 12 12 11 11 11 10 11 12 11 9 9 8 10 13 14 15 16 15 16 16 15 17 20 20 19 18 18
24 23 23 23 22 22 21 20 19 18 17 16 15 14 13 12 11 11 12 12 12 12 12 12 12 12 13 14 14 15 16 16 16 16 16 17 16 15 16 17 18 19 19 19 18 18 17 16 15 14 12 11 11 11 11 10 9 10 11 11 12 12 11 11 11 10 10 11 8 5 4 5 6 8 10 13 15 15 16 15 16 21 22 20 20 19 17
23 23 23 23 22 22 21 20 20 19 18 16 15 14 14 13 12 11 12 12 13 12 12 12 13 13 14 15 15 16 16 16 16 16 16 17 17 15 15 16 17 17 17 17 17 17 16 14 13 13 12 11 11 10 10 11 10 11 12 12 11 12 11 11 11 10 10 10 10 9 9 9 8 8 10 12 13 15 14 9 11 18 20 18 20 20 17
24 24 24 23 23 22 21 20 20 19 18 17 15 14 13 13 12 12 11 12 12 12 11 12 12 13 14 14 15 15 16 16 16 16 16 17 18 17 16 16 16 14 13 13 13 13 12 11 11 11 10 9 9 9 9 9 9 9 11 12 14 15 13 11 11 10 9 9 10 11 11 12 13 13 13 15 15 13 12 8 9 16 18 18 19 18 17
23 24 24 24 23 22 21 21 20 19 18 17 15 13 13 12 12 12 11 11 12 12 11 10 11 12 13 13 14 15 15 16 16 16 15 15 15 16 16 15 13 11 9 9 10 11 10 9 9 9 9 8 8 8 9 10 9 9 11 12 13 13 11 8 8 9 10 11 12 11 10 11 12 12 13 13 12 9 10 11 11 13 15 16 17 16 17
22 23 24 24 23 23 22 21 20 20 19 18 16 14 13 12 12 11 11 11 12 12 11 10 11 11 11 12 12 13 14 15 14 14 14 13 12 13 13 11 11 10 8 5 6 7 7 7 6 6 6 7 8 9 9 10 10 10 9 9 9 10 12 12 12 12 12 13 12 9 8 9 8 9 11 11 10 11 12 13 14 14 16 18 19 20 21
22 22 23 23 23 23 23 22 21 21 20 19 18 16 14 13 12 11 11 11 12 12 12 11 11 10 11 11 11 12 13 14 14 13 12 11 11 11 10 9 10 10 7 5 4 4 5 6 6 7 8 9 11 11 11 12 14 14 14 14 15 15 15 15 14 11 9 10 10 7 6 8 9 13 18 19 19 20 21 22 22 22 23 24 25 26 26
21 21 22 23 23 23 23 22 22 21 20 19 18 17 16 15 14 13 12 12 12 12 13 13 12 11 11 11 11 11 12 13 12 11 10 9 10 11 10 9 10 9 8 9 9 8 8 9 9 10 11 13 15 15 15 17 19 19 19 18 16 14 12 13 15 15 15 18 19 15 13 15 19 24 27 28 27 24 24 26 26 24 24 26 28 29 30
21 21 21 22 23 23 23 23 22 22 21 20 19 18 17 17 15 14 14 14 13 13 13 12 11 11 11 10 10 10 11 11 11 10 9 8 9 9 9 9 9 9 10 12 12 11 11 11 10 11 11 11 13 14 15 16 17 17 16 15 15 15 15 18 22 24 25 28 29 26 23 24 26 27 26 26 26 24 22 22 21 20 22 25 28 30 31
20 20 21 21 22 23 23 23 23 22 21 20 19 18 17 16 16 15 15 15 14 14 12 10 9 9 10 10 10 11 11 11 12 11 11 11 10 9 9 10 11 11 13 14 13 13 12 11 11 12 12 11 12 14 14 14 15 15 15 15 16 17 17 20 23 24 25 26 25 23 21 20 21 22 22 22 24 25 24 23 24 24 26 28 31 32 33
19 19 20 21 21 22 23 23 23 22 22 21 19 18 17 17 16 15 14 14 14 13 11 9 8 9 9 10 11 12 12 13 13 13 13 13 13 12 11 12 13 13 13 13 12 12 13 12 12 14 15 13 13 14 15 16 16 16 17 19 19 18 18 20 22 24 25 27 26 24 23 23 24 25 26 26 27 28 28 29 30 31 32 32 33 33 33
18 19 19 20 21 22 22 23 23 22 21 20 19 18 17 16 15 14 13 13 13 11 9 9 10 10 9 10 11 12 13 15 16 16 16 16 15 15 15 14 13 13 11 11 12 12 14 14 14 16 17 16 16 18 18 19 19 19 21 21 19 19 21 21 22 24 26 27 25 24 25 26 24 24 25 27 28 30 31 31 32 33 34 34 34 33 33
18 18 19 20 20 21 22 23 22 22 21 19 18 17 16 15 15 14 14 14 14 11 10 10 11 10 10 9 10 11 13 14 14 15 16 16 15 14 13 12 11 11 11 11 13 14 15 16 16 17 18 18 20 21 20 20 20 22 23 21 18 19 20 19 20 24 26 26 24 23 26 29 26 22 23 26 29 31 33 34 34 33 33 33 34 34 34
19 18 18 19 20 20 21 21 22 21 20 19 18 17 16 15 15 15 15 16 15 13 11 10 8 7 7 7 8 9 10 9 10 10 11 11 11 12 12 11 12 13 13 14 15 16 17 18 18 18 18 19 20 21 21 20 21 22 23 20 17 18 18 18 21 25 26 26 24 24 28 31 30 26 26 28 31 33 34 34 33 32 32 33 35 36 35
19 18 18 18 19 20 20 21 21 21 20 19 18 17 16 16 16 16 17 16 15 12 9 8 5 4 4 5 5 5 5 6 7 8 9 10 11 13 14 14 15 15 15 15 16 17 17 18 18 18 18 18 19 21 21 21 22 23 22 20 18 18 18 20 23 26 27 27 26 26 29 32 32 30 30 32 33 35 35 34 34 34 34 35 35 36 36
19 18 17 17 18 19 20 20 20 20 20 19 18 17 17 16 17 18 17 16 13 10 7 6 5 3 3 3 3 4 5 7 9 10 11 12 13 15 15 15 15 15 15 16 17 17 18 19 19 18 17 17 18 20 22 22 25 25 23 21 19 19 20 21 23 26 28 28 28 29 32 34 34 34 33 34 35 37 36 36 35 35 35 35 34 34 34
19 18 18 17 18 18 19 20 20 20 20 19 18 17 17 17 17 18 17 15 12 10 8 7 5 2 2 2 3 5 6 7 8 9 10 12 13 14 15 15 15 16 17 18 19 19 18 18 18 17 16 17 18 21 22 23 26 26 22 20 20 21 22 24 25 26 29 30 31 33 35 35 35 35 35 34 34 36 36 35 35 35 34 34 34 34 33
19 19 19 18 18 19 19 19 20 20 20 19 18 17 16 17 17 16 15 13 11 10 9 7 4 2 2 3 4 4 4 5 6 8 10 11 11 13 14 14 14 16 16 17 17 17 15 15 15 16 16 17 18 20 21 23 24 24 22 21 22 23 25 26 27 27 28 30 33 36 37 36 34 34 34 33 32 32 33 33 33 33 33 33 32 32 32
20 20 20 19 18 19 19 19 19 19 19 19 18 17 16 16 16 14 13 11 10 9 8 7 6 5 4 4 5 4 3 5 7 8 8 9 9 10 11 11 11 12 13 12 12 12 12 14 15 16 16 16 17 19 21 22 21 22 23 24 26 26 27 28 28 29 29 29 30 33 35 35 33 30 29 29 28 28 28 29 30 30 30 30 29 28 28
21 21 20 19 18 18 19 18 18 19 19 18 18 17 16 15 14 12 10 9 8 8 8 7 8 8 7 6 7 7 7 9 10 9 8 9 9 10 10 9 9 9 9 9 10 12 13 14 15 14 14 15 16 18 20 20 20 23 26 28 28 29 30 30 29 27 26 23 23 24 25 27 27 25 24 24 24 24 24 25 26 26 25 24 23 22 23
21 21 20 19 18 17 17 17 17 18 18 18 17 16 14 13 11 10 8 7 7 8 8 8 9 8 8 8 9 10 10 12 13 11 11 12 13 11 9 8 8 9 9 10 11 11 11 12 12 12 11 11 13 16 19 20 23 27 30 30 30 30 29 27 24 21 18 18 19 20 20 20 20 19 20 21 21 21 22 22 22 22 21 18 17 18 19
21 20 19 18 16 15 16 17 18 18 18 16 14 13 12 11 9 8 6 6 7 8 9 11 12 12 12 12 13 12 13 15 15 14 14 15 14 11 8 9 10 10 11 11 9 7 9 10 10 9 9 10 13 18 21 24 27 30 31 30 28 25 22 20 19 17 16 16 18 19 18 17 16 15 16 16 16 17 17 17 17 17 16 15 14 14 15
20 19 18 16 15 15 16 17 18 18 17 14 12 11 10 9 8 6 5 6 7 7 9 11 14 15 15 15 15 16 17 18 17 17 17 17 15 11 10 12 12 12 12 9 5 6 10 10 8 7 9 13 17 22 24 26 26 27 27 24 21 18 16 15 15 16 15 15 16 16 16 15 14 14 13 13 13 13 14 14 14 14 13 13 12 11 12
19 19 18 17 16 16 16 17 18 18 15 12 10 9 9 9 8 6 5 6 6 6 8 11 13 15 17 17 17 17 18 20 20 19 19 18 15 12 12 13 13 13 11 6 3 7 11 9 7 8 12 15 21 25 26 25 23 21 20 18 16 15 15 14 14 15 17 17 17 15 13 12 12 12 12 12 11 11 12 12 11 10 10 9 9 9 11
18 17 17 18 18 17 16 17 17 16 13 10 9 8 7 8 7 5 5 6 6 6 8 11 12 14 16 18 17 17 19 21 21 19 19 17 14 12 13 13 13 12 10 5 5 10 12 10 9 12 15 19 24 26 24 21 18 16 16 15 14 15 16 15 15 16 18 19 17 13 10 9 9 10 11 10 10 10 9 7 6 5 5 5 6 7 8
17 14 14 15 17 17 16 16 15 13 10 9 8 7 6 6 6 5 5 6 6 7 9 10 12 14 16 17 17 17 19 20 20 19 18 16 13 12 12 13 12 10 8 6 9 12 12 10 11 13 18 24 27 25 22 19 16 14 14 14 14 15 17 16 15 15 15 15 12 9 9 11 12 12 11 10 11 13 12 9 9 9 9 9 9 8 7
17 16 14 14 15 15 16 15 13 10 9 8 6 5 5 5 5 6 6 6 8 9 10 10 12 14 15 16 17 18 19 19 19 18 17 15 14 12 11 11 10 8 7 8 11 11 10 9 11 14 20 26 26 22 20 19 16 15 15 15 14 15 16 16 15 14 12 11 9 8 11 13 13 13 12 11 11 13 13 12 13 13 12 12 12 12 10
20 19 17 15 14 14 15 13 10 9 8 7 5 5 5 5 5 6 7 7 9 10 10 10 12 14 15 15 17 18 18 18 18 17 17 15 14 13 11 10 8 7 7 9 10 9 8 9 12 16 22 26 24 19 16 16 15 15 16 16 14 13 13 13 14 13 10 7 6 7 9 11 13 16 17 14 11 10 11 12 14 15 13 14 15 15 15
22 22 20 16 13 13 13 10 8 7 7 5 4 5 6 7 7 7 7 8 10 10 9 10 13 15 14 14 16 17 17 16 17 17 16 14 12 12 11 9 7 9 11 9 8 7 7 9 12 17 22 25 22 17 14 14 13 13 14 14 12 10 9 11 15 14 10 6 5 6 10 14 19 20 17 12 10 12 15 17 18 17 16 15 15 15 16
23 23 21 16 12 11 10 8 6 7 6 5 6 8 8 10 11 11 11 12 12 11 11 14 15 15 13 14 16 16 16 16 17 15 14 13 12 11 10 8 10 12 12 8 6 6 6 9 13 18 20 22 20 15 12 11 11 11 11 11 10 8 7 11 15 16 14 14 14 14 16 18 19 16 12 13 18 21 22 23 23 21 18 16 14 14 14
23 23 20 15 11 10 8 7 6 7 7 8 10 11 12 13 15 14 14 15 16 15 14 14 13 12 12 14 16 16 15 16 16 13 12 13 12 9 9 10 13 12 9 7 8 7 6 9 14 18 18 20 19 13 9 9 10 8 8 9 8 7 7 12 15 16 17 19 20 18 16 15 14 14 16 19 23 24 24 26 26 24 23 21 21 20 19
22 22 20 16 11 8 8 7 6 7 9 11 13 14 15 17 18 17 18 19 18 16 14 13 11 10 11 14 15 15 15 15 14 12 12 12 11 9 10 12 11 8 6 8 9 7 7 11 16 17 17 18 17 11 6 7 7 6 6 8 8 6 7 11 15 17 19 20 19 18 16 16 17 19 21 22 22 23 25 26 25 24 24 24 24 24 23
22 21 20 16 12 9 8 9 9 9 11 13 14 15 17 19 19 19 20 21 19 16 14 14 13 11 11 13 15 15 14 14 13 11 10 10 10 10 11 11 8 6 7 10 10 9 10 15 17 16 15 16 15 9 5 6 6 5 5 7 8 6 6 9 13 16 18 17 16 16 18 18 19 20 21 21 21 22 23 23 23 22 22 22 23 23 23
21 20 19 16 13 11 11 12 12 12 12 13 16 17 18 19 19 17 18 20 19 16 15 15 14 12 12 13 15 14 14 13 13 10 8 8 9 10 9 8 9 9 10 11 11 12 14 17 17 15 14 14 13 9 5 5 5 5 4 6 8 6 4 6 10 14 16 15 15 16 18 18 19 20 19 19 19 20 20 20 20 21 21 21 21 21 20
20 20 18 17 15 14 14 15 15 14 12 14 16 18 19 20 19 16 16 18 17 16 16 17 17 15 13 13 14 15 15 13 10 8 8 9 10 9 9 11 13 12 10 10 12 15 16 17 17 15 13 12 11 8 5 5 4 3 2 3 7 7 6 7 10 11 12 13 14 15 15 15 16 17 17 17 17 18 18 18 19 19 19 20 19 19 19
20 20 18 17 16 16 16 17 17 16 14 15 16 18 19 20 17 14 15 17 17 16 17 18 17 15 14 14 15 15 14 11 9 10 11 12 11 11 12 14 13 11 10 12 15 17 17 18 18 16 12 10 10 8 7 9 7 4 3 2 5 7 8 10 12 12 12 13 14 13 12 11 13 14 15 15 16 17 17 17 18 19 19 19 19 18 18
20 20 19 18 17 18 19 19 19 18 17 16 17 17 19 19 17 14 15 17 18 17 17 16 15 13 14 15 15 14 13 13 13 14 14 13 12 12 14 14 13 12 13 15 16 17 17 18 18 16 12 10 9 9 9 11 10 5 4 5 6 7 8 10 13 13 13 13 13 12 11 11 12 14 15 16 17 17 16 17 18 19 19 19 19 18 18
19 20 20 18 17 19 21 20 19 19 19 18 18 18 19 20 17 15 16 18 18 18 18 17 16 15 16 16 16 16 15 15 16 16 17 15 13 13 14 15 14 15 16 17 16 16 16 16 16 15 12 9 9 9 10 13 11 7 6 7 8 9 9 10 11 12 12 13 12 12 11 12 14 15 16 17 16 16 16 16 17 18 18 18 18 18 18
Wind_Direction
306 307 307 308 308 307 306 305 304 297 287 284 282 278 273 265 259 257 254 252 252 256 260 261 259 257 253 247 244 249 255 256 256 259 265 271 275 277 279 280 278 278 278 277 274 273 274 276 276 274 274 274 274 276 277 276 280 286 286 285 285 283 275 271 270 264 260 262 263 252 246 255 262 263 264 263 262 255 249 250 247 241 242 233 229 267 216
302 302 301 301 301 301 301 302 304 303 296 288 282 275 268 259 255 254 254 252 251 254 257 259 260 258 254 251 250 253 257 261 264 267 270 273 275 278 280 280 277 275 274 270 267 267 269 271 272 271 271 272 272 272 272 275 280 285 285 281 280 279 270 269 278 280 269 264 263 258 255 257 259 261 263 259 254 250 248 246 238 238 245 240 236 249 224
304 304 303 301 299 298 296 295 296 297 296 292 285 277 266 258 255 254 254 252 248 247 251 255 256 255 253 255 257 257 259 262 265 268 271 272 274 277 279 279 276 273 270 267 264 264 264 266 267 268 268 266 267 270 272 276 281 284 283 280 279 275 269 266 264 252 244 252 261 267 266 261 257 257 259 258 252 246 243 238 228 226 235 231 226 237 245
312 311 308 305 303 300 296 294 292 290 288 285 281 276 270 264 261 257 255 251 247 245 248 253 254 253 254 257 260 259 259 263 267 271 273 274 275 277 278 276 273 269 265 263 263 263 265 266 266 266 265 262 265 270 272 275 279 284 285 282 276 269 264 264 261 253 250 257 263 266 266 266 265 264 266 264 255 248 243 235 230 232 236 232 227 231 243
321 319 317 313 309 305 300 296 293 289 285 280 275 271 266 263 260 256 253 251 248 246 248 251 252 254 256 258 261 261 262 265 270 274 275 275 276 276 275 273 269 266 265 264 264 265 267 267 267 267 267 265 266 269 273 278 283 287 287 278 269 264 260 260 260 257 257 262 264 262 262 264 266 268 269 265 257 251 246 244 249 250 247 249 249 248 250
330 329 327 324 319 314 309 303 298 294 288 282 276 271 265 263 260 255 251 250 248 246 246 247 249 252 254 256 260 263 267 270 273 275 275 276 275 273 270 269 267 265 266 267 268 270 270 270 270 271 271 271 271 272 276 281 286 291 288 274 262 261 262 261 261 259 261 265 266 262 260 260 259 260 261 261 260 260 258 259 263 259 254 261 269 269 267
335 334 333 331 328 325 320 314 309 304 297 287 279 272 266 263 261 256 253 253 252 249 249 249 249 251 254 259 262 265 268 272 274 274 274 272 271 269 267 267 267 265 264 264 266 269 270 272 274 275 277 279 280 279 280 282 286 291 289 276 267 267 269 267 266 266 263 261 265 268 266 265 262 258 258 259 260 262 264 264 264 261 261 268 276 278 277
340 339 338 336 334 331 328 324 319 315 310 300 287 276 269 264 261 258 256 256 256 256 257 258 258 259 261 264 266 268 270 272 272 272 271 268 267 267 268 269 270 269 266 263 263 266 270 274 277 279 283 288 290 289 289 289 290 290 289 282 275 276 277 274 276 278 272 265 266 270 270 272 271 264 258 258 259 259 258 257 256 256 262 270 276 278 278
343 342 341 340 339 337 334 331 328 324 319 311 299 285 274 266 263 261 260 260 260 261 263 265 268 270 270 270 270 271 272 271 268 267 267 265 264 266 268 271 274 275 273 269 266 267 269 273 278 283 289 293 297 298 298 297 296 293 291 286 280 279 281 282 284 283 278 275 273 271 271 273 272 265 258 253 253 254 255 256 255 255 262 271 273 273 278
345 344 343 343 342 341 341 340 337 334 329 322 314 300 286 275 268 264 262 262 262 263 264 266 269 272 272 272 272 271 269 267 264 262 264 266 265 266 267 268 272 275 277 276 274 272 272 273 278 285 289 292 297 301 300 299 297 295 293 288 283 280 281 284 285 278 277 281 282 278 276 274 269 265 260 255 253 254 256 256 253 254 262 268 269 272 280
346 345 344 343 344 343 344 345 344 342 339 332 323 312 299 288 281 274 270 269 268 268 268 268 269 270 271 271 271 271 270 268 266 263 263 266 268 269 269 268 269 272 274 276 278 278 278 279 280 283 285 288 293 296 296 295 295 295 292 287 284 281 279 280 277 268 273 281 282 275 266 258 264 268 267 263 259 255 255 253 251 255 262 265 268 274 279
345 345 344 344 344 344 345 346 347 347 344 339 332 323 311 300 292 285 280 277 277 277 276 274 273 273 273 273 273 273 273 273 271 267 265 267 269 270 272 272 271 272 273 275 278 280 281 282 282 282 283 286 289 290 290 290 290 289 285 279 278 276 272 272 267 260 268 275 271 258 250 254 265 273 270 260 251 244 247 249 252 256 259 261 265 268 268
346 345 344 344 344 344 344 346 347 348 346 343 338 330 322 314 305 295 287 283 282 281 280 279 276 275 275 274 273 274 273 273 273 272 270 270 270 272 273 273 272 271 272 275 277 278 280 282 282 283 284 287 289 289 289 287 280 275 273 268 267 266 259 261 263 259 264 261 230 213 257 272 271 270 263 248 240 238 240 243 246 248 250 253 256 255 255
348 347 346 346 345 345 345 345 346 346 346 344 339 333 326 320 313 306 298 292 286 283 282 281 278 277 276 275 274 275 274 274 274 274 274 273 272 273 273 273 273 273 272 273 273 275 279 282 285 288 290 292 293 291 287 275 259 259 264 261 259 261 257 260 265 261 257 251 237 242 267 278 269 258 255 249 245 240 234 234 237 239 241 245 246 244 243
351 351 350 349 348 347 346 346 346 346 346 344 340 334 327 321 313 307 302 296 292 290 288 285 283 280 278 277 276 275 275 275 273 274 276 277 276 274 272 271 271 271 271 272 273 274 276 280 286 291 293 295 296 291 283 276 269 266 265 262 260 263 263 263 267 261 253 259 263 261 268 274 264 256 248 241 238 231 229 235 242 244 245 245 241 238 238
354 354 353 351 350 349 348 347 347 347 347 346 342 335 328 322 315 308 302 296 293 291 289 287 284 280 278 277 277 278 279 279 277 277 278 279 279 278 276 274 272 272 273 275 275 274 275 277 279 280 283 288 292 289 285 286 282 271 268 269 267 265 265 263 262 258 254 257 260 252 247 257 264 258 243 234 234 235 239 245 243 240 242 240 232 230 231
356 356 355 353 351 350 349 349 348 349 348 348 347 340 333 328 322 316 308 300 296 293 291 289 285 281 281 280 281 283 284 284 284 284 285 285 285 283 278 274 273 275 276 277 276 274 272 269 265 266 273 280 282 280 281 284 285 280 277 276 271 271 275 271 264 262 261 261 258 257 262 265 263 260 250 240 239 237 234 235 227 224 226 228 227 227 228
357 356 355 353 352 351 350 350 350 350 350 351 351 347 341 335 331 326 318 307 302 299 296 292 287 283 282 282 284 286 286 287 290 292 293 293 293 292 288 282 280 279 275 272 268 263 260 257 258 264 272 272 270 269 272 275 277 279 283 286 289 292 293 284 271 263 261 266 268 267 269 268 267 267 260 251 249 240 226 224 227 222 221 226 228 227 230
357 356 355 354 352 351 351 351 351 350 350 352 353 352 347 341 338 334 327 317 311 308 305 299 292 288 285 283 285 288 290 292 294 296 298 300 301 304 303 298 294 291 284 270 256 252 253 253 255 262 265 261 259 261 264 266 265 271 284 291 295 300 301 289 271 271 275 274 273 273 273 268 267 269 261 253 255 252 238 238 242 238 237 243 248 251 255
356 356 355 353 352 351 351 351 351 351 351 351 352 353 349 343 339 336 330 323 317 314 311 304 299 297 294 291 292 293 294 295 296 300 307 311 314 316 312 305 303 305 304 286 256 252 257 254 248 254 258 254 256 261 266 267 264 268 283 289 285 288 292 288 283 286 282 267 257 261 265 253 251 267 274 274 278 279 270 263 263 267 270 271 274 279 283
354 355 354 353 352 351 350 350 351 352 352 350 350 352 347 341 339 337 331 325 319 315 312 309 307 303 298 296 296 294 294 295 298 306 317 323 326 327 320 310 312 320 327 333 321 297 284 276 267 264 262 261 264 268 273 274 272 272 277 282 283 280 279 281 282 281 270 249 232 219 225 238 260 284 292 295 295 293 292 291 287 287 286 284 283 285 289
350 352 352 351 351 350 349 349 350 350 351 349 349 349 346 341 341 339 332 326 322 317 313 311 307 302 298 296 294 291 290 292 296 304 316 326 332 333 328 319 321 329 338 340 337 331 322 312 300 286 280 279 278 277 278 279 279 280 279 280 281 275 265 266 267 262 259 258 254 248 249 260 275 285 287 289 289 289 292 295 294 291 289 287 287 288 289
346 348 349 349 349 349 348 349 349 348 348 347 347 347 344 340 339 337 332 326 323 319 316 314 309 304 302 299 294 291 290 292 296 301 307 318 326 327 324 321 321 328 334 333 329 327 327 325 319 311 307 302 294 289 287 285 286 290 289 282 278 274 269 269 269 268 267 268 268 269 270 270 272 274 274 277 280 282 284 286 284 279 277 280 285 288 287
343 344 345 346 347 347 347 347 348 347 345 344 345 345 342 338 336 335 332 328 324 323 322 320 314 311 313 309 300 295 292 289 292 295 300 309 315 314 312 312 312 316 322 322 320 320 323 326 324 321 322 319 306 299 297 294 295 299 299 293 292 292 286 277 275 275 274 272 274 277 274 269 266 264 262 265 272 275 276 274 270 268 269 273 278 280 280
339 340 341 342 343 344 345 345 346 346 344 343 344 343 341 339 337 337 336 333 332 334 334 331 326 323 320 310 300 297 295 292 292 294 299 305 306 306 307 307 307 311 315 313 312 314 316 319 320 319 321 321 312 304 301 301 303 302 297 296 300 300 292 283 280 280 278 277 280 281 277 272 269 268 268 269 271 271 269 267 266 266 268 271 274 276 277
334 336 337 338 340 342 343 344 346 347 345 344 345 345 343 342 341 342 342 341 341 342 337 329 325 321 312 302 294 292 290 290 289 290 292 295 298 301 304 304 305 307 307 303 302 305 307 311 312 313 314 314 309 306 305 305 305 300 296 301 305 298 289 289 290 288 284 282 284 287 285 278 272 270 272 272 271 270 269 268 267 268 271 274 276 277 278
329 331 333 335 336 339 341 343 346 348 347 346 348 348 346 345 345 344 344 343 343 342 335 328 322 314 305 298 293 290 290 289 288 288 289 291 293 295 298 300 300 299 297 295 296 297 299 303 305 307 308 308 306 306 307 305 302 298 300 308 310 298 293 297 297 292 288 287 288 289 286 283 280 277 275 271 268 268 269 270 271 274 276 278 279 278 276
327 327 329 332 333 336 339 342 345 348 348 346 348 349 347 345 342 341 343 345 345 344 343 342 335 320 305 295 289 291 293 296 300 299 295 291 288 286 290 292 289 288 288 289 289 291 293 297 300 303 306 308 306 304 303 303 301 299 303 311 309 299 298 299 294 289 288 289 288 284 280 280 283 284 279 275 273 273 274 275 276 278 278 279 279 279 277
328 326 327 329 330 333 338 341 345 348 347 346 346 346 345 342 340 340 343 346 347 349 353 357 354 328 304 297 292 291 293 297 304 304 297 292 289 288 288 288 286 286 287 289 290 292 293 296 299 303 307 308 305 301 302 304 302 301 308 314 308 299 295 291 287 286 286 286 286 282 278 277 279 279 276 275 276 278 279 279 279 278 278 279 281 282 283
330 328 327 327 328 331 336 340 343 345 345 343 343 342 341 339 338 338 341 343 347 355 3 5 359 336 311 305 289 281 285 290 294 294 292 290 289 288 287 288 289 289 291 293 295 296 296 298 301 303 305 306 302 299 303 304 301 303 311 314 306 296 290 286 286 287 286 286 285 283 280 278 278 277 276 276 277 279 280 280 282 283 284 285 285 286 287
330 328 328 327 326 329 334 338 340 341 341 340 339 338 337 335 335 337 339 343 349 358 6 9 7 355 339 328 300 285 285 290 292 294 294 293 290 288 288 289 289 290 291 293 295 296 297 300 301 301 303 304 300 299 301 302 302 307 315 312 302 296 292 289 287 286 287 289 289 285 280 278 278 279 279 278 279 280 281 281 284 286 287 287 287 287 287
330 328 328 327 326 327 331 334 336 337 338 337 336 334 333 332 334 337 341 345 351 1 9 16 18 8 3 3 348 322 311 323 325 314 305 300 296 290 287 286 288 289 290 292 295 297 299 300 299 300 302 302 300 300 301 301 305 311 314 309 303 301 299 297 295 294 296 298 296 290 286 283 281 280 280 279 279 280 282 283 284 286 286 286 286 285 285
330 328 327 326 326 326 328 331 333 334 335 335 335 333 332 333 336 340 344 348 356 9 20 32 40 40 41 32 17 1 343 344 342 328 314 310 304 296 294 294 294 295 295 297 300 303 303 302 301 302 302 303 303 303 302 305 311 315 313 311 310 308 306 305 305 305 305 304 300 296 295 294 290 285 282 281 281 281 282 284 285 285 285 284 283 282 282
331 329 328 327 326 325 326 328 331 333 334 335 335 334 335 337 340 342 345 352 7 23 32 40 43 42 42 28 11 360 352 351 351 346 341 337 329 320 317 315 312 312 313 312 309 309 308 306 306 308 310 311 310 309 311 318 322 319 315 313 310 308 307 308 308 308 307 305 302 302 304 304 299 293 287 284 284 283 283 284 286 287 289 289 288 285 283
333 331 330 328 326 325 326 330 334 335 335 334 334 335 337 341 343 345 349 0 19 33 37 34 30 26 20 11 1 355 353 356 358 359 354 347 341 338 336 333 330 331 330 322 315 316 319 319 319 322 325 324 326 332 335 332 323 316 313 311 308 308 310 312 312 315 318 315 311 308 307 309 307 301 292 288 286 286 285 286 289 293 297 299 295 286 282
333 332 332 330 327 326 329 333 336 336 335 334 335 336 341 347 350 351 359 17 30 36 38 34 26 20 15 10 3 359 358 360 1 0 355 349 346 347 346 342 341 342 338 331 328 338 343 335 329 335 339 340 344 346 340 328 317 312 312 312 313 316 318 318 319 324 329 326 321 317 316 318 317 313 305 299 294 292 291 290 290 291 294 297 294 288 288
332 331 331 331 330 330 333 334 334 335 336 335 335 339 347 354 355 358 16 33 34 33 36 33 26 22 20 14 6 3 2 0 358 357 354 351 350 349 346 345 344 344 344 342 342 356 352 340 331 342 350 346 344 341 333 326 321 318 316 318 322 325 324 321 322 328 332 330 325 322 321 321 321 321 318 312 304 300 297 294 290 287 289 294 297 301 309
334 333 333 333 333 334 334 333 334 336 336 336 339 346 354 358 1 12 29 32 26 26 29 25 20 18 17 12 6 1 359 357 356 354 352 351 351 350 347 345 343 344 348 350 347 351 351 342 334 346 351 344 340 338 334 332 330 327 324 326 333 335 333 332 334 336 335 334 331 330 330 329 325 325 327 323 319 315 306 298 296 296 296 301 308 318 329
339 334 329 329 331 333 334 334 335 337 336 338 344 350 355 2 11 22 21 14 15 19 17 13 10 8 5 4 2 360 356 353 354 354 352 350 349 347 344 343 342 343 347 352 349 347 348 348 350 353 351 344 341 340 340 340 337 330 329 336 343 342 340 343 346 344 343 344 348 354 360 357 350 348 349 350 355 356 344 325 322 329 332 342 349 344 344
339 331 323 324 329 332 334 336 337 338 339 342 344 347 352 360 8 9 1 357 1 3 1 1 2 358 354 354 355 355 352 351 351 352 352 349 345 342 340 339 340 342 346 351 350 347 347 353 358 354 348 346 346 346 348 349 344 336 339 347 347 341 343 350 356 355 355 359 7 24 37 34 25 18 15 18 27 30 30 34 46 53 51 40 29 21 17
338 334 329 329 329 332 335 337 337 339 343 343 337 333 338 341 346 352 353 349 347 347 347 349 352 349 345 345 347 347 348 349 348 349 350 346 340 338 339 338 338 340 343 344 344 344 346 352 353 350 349 350 349 349 351 352 347 342 346 350 345 341 349 358 360 357 1 11 25 45 46 36 29 30 34 36 36 35 36 43 53 57 50 35 29 30 31
339 339 337 334 331 332 334 336 335 340 345 342 326 318 317 312 319 334 337 334 338 343 342 340 341 339 336 337 340 342 343 345 346 345 344 342 338 336 338 340 339 336 335 334 336 341 345 343 341 345 350 352 351 350 347 345 343 343 344 346 347 353 2 8 5 3 7 14 21 34 41 42 48 53 51 43 36 40 48 55 60 63 59 52 51 53 51
339 341 339 335 332 331 331 332 335 342 344 335 319 313 304 295 302 314 311 310 323 335 335 331 330 326 323 327 335 339 339 341 342 340 337 338 337 333 332 336 338 332 331 331 329 334 341 337 335 342 349 351 352 352 346 341 345 348 346 349 359 10 18 24 24 25 32 46 60 66 68 67 65 60 53 50 62 74 75 73 71 71 72 73 74 75 73
338 340 338 334 329 328 329 329 331 336 336 329 319 313 299 289 293 297 295 297 307 317 318 315 315 315 315 322 330 334 335 336 336 334 332 334 335 327 322 328 332 330 329 328 322 325 335 333 331 338 346 349 350 351 345 342 348 351 350 358 10 16 25 38 41 44 55 70 75 73 70 67 66 66 72 81 82 79 75 72 70 69 70 74 77 80 79
337 339 338 333 326 322 323 325 323 326 331 328 322 316 307 299 296 295 293 296 303 307 306 303 306 312 318 321 324 329 331 331 330 329 326 327 326 320 315 322 326 326 325 325 323 323 325 323 325 333 343 349 350 351 344 340 346 353 1 13 20 22 34 45 48 54 65 70 67 62 63 69 79 88 89 84 79 75 72 70 69 67 68 71 73 74 75
336 338 338 334 327 318 317 317 316 321 326 324 319 315 308 301 297 294 291 293 297 299 298 297 301 307 311 314 319 325 327 325 324 324 321 318 318 316 316 319 320 316 311 316 318 315 311 315 322 332 341 346 349 350 338 333 345 1 16 23 27 37 50 52 54 63 71 70 64 66 77 87 91 88 82 75 72 71 68 67 67 66 65 66 67 68 69
335 337 336 332 323 314 309 308 309 316 321 317 314 311 306 302 300 295 289 288 290 291 290 291 295 297 301 309 316 321 323 322 320 317 313 310 309 311 314 315 309 295 296 306 311 311 310 314 321 330 337 340 344 343 323 318 335 352 11 29 40 55 69 63 61 68 75 76 76 83 89 87 83 78 73 69 69 67 64 64 64 62 60 60 59 59 60
332 334 334 328 318 310 304 301 304 312 315 311 310 310 310 310 310 301 289 285 287 285 282 284 287 288 295 305 310 314 317 317 312 308 306 306 306 307 306 301 293 290 293 298 303 309 312 314 318 325 330 333 337 334 306 287 309 330 4 43 52 61 90 94 83 80 82 84 86 85 81 76 74 72 68 65 65 64 61 59 57 55 55 56 55 53 52
328 330 329 325 317 310 303 301 304 309 309 307 309 310 311 315 317 307 288 283 284 279 275 277 279 280 288 298 302 305 310 310 304 299 301 302 300 297 292 289 291 295 297 296 300 307 312 312 313 318 321 322 326 323 281 245 261 296 331 63 67 72 99 117 111 101 97 96 92 84 75 71 71 69 64 62 61 59 56 55 54 53 53 53 52 50 50
323 324 325 323 317 309 303 301 304 308 308 306 308 309 311 316 318 304 282 277 277 273 273 275 275 274 283 291 292 295 299 299 293 295 300 302 299 294 290 291 295 298 299 297 300 306 310 309 308 311 312 306 307 303 263 230 227 250 258 169 105 95 102 109 111 109 106 103 99 92 82 75 72 70 66 63 59 55 52 52 53 52 50 49 49 48 47
318 318 320 320 315 308 304 303 305 307 308 308 309 310 312 316 316 299 278 274 273 269 270 274 272 269 273 279 280 284 290 291 291 293 297 300 299 294 292 296 301 303 301 301 303 305 306 303 303 306 303 290 286 285 256 223 212 221 226 186 147 127 120 114 109 107 105 101 97 94 90 84 80 75 70 64 59 54 51 49 48 47 45 44 43 42 41
314 313 316 317 312 306 304 305 307 307 307 309 311 311 312 315 314 298 280 274 271 266 265 267 267 267 270 274 276 277 280 282 285 288 292 295 296 293 292 296 300 300 302 304 304 304 304 302 301 302 297 281 274 272 244 216 204 204 201 181 158 145 142 133 120 115 112 107 102 101 98 92 86 79 72 66 60 55 51 49 48 47 45 43 40 37 35
Height
3083 3082 3080 3079 3078 3077 3075 3075 3074 3074 3073 3072 3072 3071 3071 3071 3072 3072 3072 3072 3072 3072 3072 3072 3072 3072 3072 3072 3073 3073 3073 3073 3073 3073 3073 3074 3074 3074 3074 3074 3074 3073 3073 3073 3073 3073 3073 3072 3073 3073 3073 3073 3073 3073 3073 3073 3073 3074 3074 3073 3073 3073 3072 3071 3071 3071 3071 3071 3071 3071 3071 3071 3071 3071 3071 3072 3072 3073 3073 3073 3074 3075 3075 3076 3077 3075 3073
3081 3080 3078 3077 3076 3075 3073 3073 3072 3072 3071 3070 3070 3069 3069 3069 3069 3069 3070 3070 3070 3070 3070 3070 3070 3070 3070 3071 3071 3071 3071 3071 3071 3071 3071 3071 3072 3072 3072 3072 3072 3071 3071 3071 3071 3071 3071 3070 3070 3071 3071 3071 3071 3071 3071 3072 3072 3072 3072 3072 3071 3071 3071 3070 3070 3070 3070 3069 3069 3069 3069 3069 3069 3069 3069 3069 3070 3070 3071 3071 3071 3071 3071 3073 3074 3072 3070
3079 3078 3076 3075 3074 3072 3071 3070 3070 3069 3069 3068 3068 3068 3067 3067 3067 3067 3067 3068 3068 3068 3068 3067 3068 3068 3068 3069 3069 3069 3069 3069 3069 3069 3069 3069 3069 3069 3069 3069 3069 3069 3069 3069 3069 3068 3069 3069 3068 3069 3070 3070 3069 3069 3070 3070 3070 3070 3070 3070 3070 3069 3069 3069 3069 3069 3069 3068 3068 3068 3068 3068 3067 3067 3068 3068 3068 3069 3069 3069 3069 3068 3067 3069 3069 3068 3069
3076 3075 3074 3073 3071 3070 3069 3068 3067 3067 3066 3066 3066 3066 3065 3065 3065 3065 3065 3065 3065 3065 3065 3065 3066 3066 3066 3066 3066 3066 3067 3067 3067 3067 3067 3067 3066 3066 3066 3066 3066 3066 3066 3067 3067 3066 3066 3066 3066 3067 3068 3068 3068 3067 3067 3068 3068 3068 3068 3068 3068 3067 3066 3067 3067 3066 3066 3066 3067 3067 3067 3066 3065 3066 3066 3066 3067 3067 3067 3066 3065 3065 3066 3064 3064 3066 3068
3075 3073 3072 3070 3069 3068 3066 3065 3065 3064 3064 3063 3063 3063 3063 3063 3063 3063 3063 3063 3063 3063 3063 3063 3063 3063 3064 3064 3063 3064 3064 3065 3065 3064 3064 3064 3064 3064 3064 3064 3064 3064 3064 3064 3064 3064 3064 3064 3064 3064 3065 3065 3066 3065 3065 3066 3066 3066 3066 3066 3066 3065 3064 3064 3064 3063 3063 3064 3064 3065 3064 3063 3063 3063 3063 3064 3064 3064 3064 3064 3063 3064 3064 3060 3062 3066 3066
3073 3071 3070 3069 3067 3066 3064 3063 3062 3062 3061 3061 3060 3060 3061 3061 3061 3061 3061 3061 3061 3060 3060 3061 3061 3061 3061 3061 3061 3061 3062 3062 3062 3062 3061 3061 3061 3061 3061 3061 3062 3061 3062 3062 3062 3062 3062 3062 3062 3062 3062 3063 3063 3063 3063 3063 3064 3064 3064 3064 3064 3063 3061 3061 3061 3060 3061 3061 3061 3061 3061 3061 3061 3061 3061 3061 3061 3061 3061 3061 3061 3062 3060 3057 3059 3062 3062
3072 3070 3069 3067 3066 3064 3063 3061 3060 3059 3059 3059 3058 3058 3058 3058 3058 3058 3058 3058 3058 3058 3058 3058 3059 3059 3059 3059 3059 3059 3059 3059 3059 3059 3059 3059 3059 3059 3059 3059 3059 3059 3059 3060 3060 3060 3060 3060 3060 3060 3060 3060 3060 3061 3061 3061 3061 3062 3062 3062 3062 3060 3059 3059 3058 3057 3057 3058 3059 3059 3058 3058 3057 3058 3058 3058 3058 3058 3057 3057 3058 3058 3056 3055 3057 3058 3057
3070 3069 3067 3066 3064 3063 3061 3060 3058 3057 3057 3056 3056 3056 3056 3056 3055 3055 3056 3055 3055 3055 3055 3056 3056 3056 3056 3056 3056 3056 3057 3057 3057 3056 3056 3056 3056 3056 3057 3056 3057 3057 3057 3058 3058 3058 3058 3058 3057 3057 3057 3057 3058 3058 3058 3058 3059 3059 3059 3059 3059 3057 3056 3056 3056 3054 3053 3054 3056 3056 3055 3055 3053 3053 3054 3055 3055 3054 3054 3054 3054 3054 3052 3053 3054 3052 3052
3069 3067 3066 3064 3063 3061 3060 3059 3057 3056 3055 3055 3054 3054 3054 3054 3053 3053 3053 3053 3053 3053 3053 3053 3053 3053 3054 3054 3054 3054 3055 3055 3055 3054 3054 3054 3054 3054 3055 3054 3054 3055 3055 3055 3055 3055 3055 3055 3055 3055 3055 3055 3055 3055 3055 3055 3055 3054 3055 3055 3055 3055 3053 3052 3054 3051 3047 3050 3053 3052 3052 3052 3048 3047 3050 3051 3051 3050 3050 3050 3050 3050 3050 3050 3050 3048 3047
3069 3067 3065 3063 3061 3060 3059 3058 3056 3055 3054 3053 3052 3052 3052 3052 3052 3051 3051 3051 3051 3051 3051 3051 3051 3051 3051 3051 3052 3052 3052 3053 3053 3053 3052 3051 3052 3052 3053 3053 3053 3053 3052 3052 3052 3053 3052 3053 3052 3052 3053 3052 3052 3052 3052 3052 3051 3051 3051 3051 3050 3051 3050 3049 3051 3048 3043 3046 3049 3048 3050 3048 3040 3039 3045 3047 3046 3046 3046 3046 3046 3047 3048 3047 3046 3044 3045
3068 3066 3064 3062 3060 3059 3058 3057 3056 3054 3053 3052 3051 3051 3050 3050 3050 3049 3049 3049 3049 3049 3049 3049 3049 3049 3049 3049 3050 3050 3050 3050 3051 3051 3050 3049 3050 3050 3050 3051 3051 3050 3050 3050 3050 3050 3050 3050 3050 3050 3050 3050 3050 3050 3049 3049 3049 3048 3047 3047 3046 3047 3047 3047 3047 3045 3041 3043 3045 3046 3046 3040 3034 3036 3040 3041 3041 3042 3042 3042 3043 3044 3045 3044 3043 3042 3043
3068 3066 3064 3062 3060 3058 3057 3056 3055 3054 3053 3051 3050 3050 3049 3048 3048 3048 3047 3047 3047 3047 3047 3047 3047 3047 3047 3047 3047 3047 3048 3048 3048 3048 3048 3048 3048 3048 3048 3048 3048 3048 3048 3047 3047 3048 3048 3048 3048 3047 3048 3047 3047 3047 3046 3046 3046 3045 3044 3043 3043 3043 3043 3043 3043 3042 3040 3040 3043 3044 3039 3033 3032 3035 3036 3036 3037 3038 3038 3039 3040 3041 3041 3040 3040 3040 3039
3067 3065 3063 3061 3059 3058 3056 3055 3054 3053 3052 3051 3049 3049 3048 3047 3047 3046 3046 3045 3045 3045 3045 3045 3045 3045 3045 3045 3045 3045 3046 3046 3046 3046 3046 3046 3046 3045 3045 3045 3045 3045 3045 3045 3045 3045 3045 3045 3044 3044 3044 3044 3044 3044 3043 3043 3043 3042 3041 3041 3040 3041 3041 3040 3040 3040 3038 3038 3039 3038 3033 3030 3032 3033 3032 3033 3035 3035 3036 3037 3037 3037 3037 3037 3037 3036 3036
3066 3064 3062 3061 3059 3057 3056 3054 3053 3052 3051 3050 3049 3048 3047 3046 3045 3045 3044 3044 3044 3043 3043 3043 3043 3043 3043 3043 3043 3043 3043 3044 3044 3043 3043 3043 3044 3043 3043 3042 3042 3042 3043 3043 3043 3043 3042 3042 3041 3041 3041 3041 3041 3040 3040 3040 3040 3040 3039 3039 3039 3039 3039 3038 3038 3037 3036 3035 3034 3032 3029 3029 3030 3030 3030 3031 3032 3032 3033 3034 3033 3034 3034 3034 3033 3033 3033
3066 3064 3062 3060 3059 3057 3055 3054 3053 3052 3051 3050 3048 3047 3046 3045 3044 3043 3042 3042 3042 3041 3041 3041 3041 3041 3040 3040 3041 3041 3041 3041 3041 3041 3041 3041 3041 3041 3041 3040 3040 3040 3040 3040 3040 3040 3040 3040 3039 3039 3038 3039 3038 3038 3038 3038 3038 3038 3037 3037 3037 3037 3036 3036 3036 3035 3034 3033 3032 3030 3029 3028 3027 3027 3028 3029 3030 3030 3031 3031 3031 3031 3030 3030 3031 3031 3031
3066 3064 3062 3060 3058 3056 3055 3053 3052 3051 3050 3049 3047 3046 3045 3044 3043 3042 3041 3040 3040 3040 3039 3039 3039 3039 3038 3038 3038 3039 3039 3039 3039 3039 3039 3039 3039 3039 3039 3038 3038 3037 3037 3038 3038 3038 3038 3038 3037 3037 3036 3036 3037 3036 3035 3035 3035 3035 3035 3035 3035 3035 3034 3034 3034 3033 3032 3032 3031 3029 3028 3026 3025 3026 3027 3027 3028 3029 3029 3029 3027 3026 3027 3027 3027 3028 3028
3066 3064 3062 3060 3058 3056 3054 3053 3051 3050 3049 3048 3047 3045 3044 3043 3042 3041 3040 3039 3038 3038 3038 3037 3037 3037 3036 3036 3036 3036 3036 3036 3036 3037 3037 3036 3037 3037 3037 3036 3035 3035 3035 3036 3035 3035 3035 3035 3035 3035 3035 3035 3035 3034 3033 3033 3032 3032 3033 3033 3033 3033 3033 3032 3031 3031 3030 3030 3029 3027 3026 3025 3024 3025 3025 3026 3026 3026 3027 3026 3023 3023 3024 3024 3024 3025 3025
3066 3064 3062 3060 3058 3056 3054 3052 3051 3049 3048 3047 3046 3044 3043 3042 3041 3040 3039 3038 3037 3036 3036 3036 3035 3035 3035 3034 3034 3034 3034 3034 3034 3035 3035 3034 3034 3034 3035 3034 3033 3033 3033 3033 3033 3033 3033 3033 3033 3033 3033 3033 3033 3032 3031 3031 3030 3030 3030 3030 3030 3030 3030 3029 3029 3028 3028 3028 3026 3025 3024 3023 3023 3023 3023 3024 3024 3024 3023 3022 3021 3021 3022 3021 3022 3022 3023
3066 3064 3062 3059 3057 3055 3054 3052 3050 3049 3047 3046 3045 3044 3043 3041 3040 3039 3038 3036 3035 3035 3035 3034 3034 3033 3033 3033 3033 3033 3032 3032 3033 3033 3033 3033 3032 3032 3032 3032 3031 3031 3031 3031 3031 3031 3031 3031 3031 3031 3031 3031 3031 3030 3030 3029 3029 3029 3029 3029 3029 3028 3027 3027 3027 3026 3026 3026 3025 3023 3022 3021 3021 3021 3021 3021 3022 3021 3020 3020 3020 3020 3020 3019 3019 3020 3020
3066 3064 3062 3059 3057 3055 3053 3051 3050 3048 3047 3045 3044 3043 3042 3041 3040 3038 3037 3036 3034 3033 3033 3033 3032 3032 3032 3032 3031 3031 3031 3030 3031 3031 3031 3032 3031 3031 3030 3030 3030 3029 3029 3029 3030 3030 3030 3030 3030 3029 3029 3029 3029 3029 3028 3028 3027 3028 3028 3027 3028 3027 3026 3025 3025 3024 3023 3023 3022 3021 3020 3019 3019 3019 3018 3019 3019 3019 3018 3018 3018 3018 3018 3018 3017 3017 3017
3066 3064 3062 3059 3057 3055 3053 3051 3049 3048 3046 3045 3044 3043 3041 3040 3039 3038 3037 3035 3034 3033 3032 3031 3031 3031 3031 3030 3030 3030 3029 3029 3029 3030 3030 3030 3030 3030 3029 3029 3028 3028 3028 3028 3028 3029 3029 3029 3029 3029 3028 3028 3028 3028 3027 3026 3026 3026 3026 3026 3025 3025 3025 3023 3022 3022 3021 3019 3019 3018 3017 3017 3017 3017 3016 3016 3016 3016 3015 3015 3015 3015 3015 3015 3014 3014 3014
3066 3064 3062 3060 3057 3055 3053 3051 3049 3047 3046 3044 3043 3042 3040 3039 3038 3037 3036 3034 3033 3032 3031 3030 3030 3030 3029 3029 3029 3028 3028 3028 3028 3029 3029 3029 3029 3029 3029 3028 3028 3028 3027 3027 3028 3028 3028 3027 3027 3027 3027 3027 3026 3026 3025 3024 3024 3024 3024 3024 3023 3022 3022 3021 3020 3019 3018 3016 3015 3015 3016 3015 3015 3014 3014 3013 3013 3013 3013 3012 3011 3011 3011 3011 3010 3010 3010
3066 3064 3062 3059 3057 3055 3053 3051 3049 3047 3045 3044 3042 3041 3040 3038 3037 3036 3034 3033 3032 3031 3030 3029 3028 3028 3028 3028 3027 3027 3027 3027 3027 3028 3028 3028 3029 3028 3028 3028 3028 3027 3027 3027 3027 3026 3026 3026 3025 3025 3025 3024 3024 3023 3023 3022 3021 3021 3021 3021 3020 3020 3020 3018 3016 3015 3014 3012 3011 3012 3013 3012 3012 3011 3011 3010 3010 3010 3010 3009 3008 3008 3007 3006 3006 3005 3004
3065 3063 3061 3059 3057 3055 3052 3050 3049 3047 3045 3043 3042 3040 3039 3037 3036 3035 3033 3032 3031 3030 3029 3028 3027 3027 3027 3026 3026 3026 3026 3026 3026 3027 3027 3027 3028 3028 3028 3027 3027 3027 3027 3026 3025 3025 3025 3025 3024 3023 3023 3023 3021 3021 3020 3020 3019 3019 3018 3017 3017 3017 3016 3015 3013 3012 3011 3008 3008 3009 3009 3008 3008 3008 3007 3007 3007 3006 3006 3005 3004 3003 3003 3002 3002 3001 3000
3064 3063 3061 3059 3057 3055 3052 3050 3048 3046 3044 3043 3041 3039 3038 3037 3035 3034 3033 3031 3030 3028 3028 3027 3027 3027 3026 3026 3025 3025 3025 3025 3025 3025 3025 3026 3026 3026 3026 3026 3026 3026 3025 3025 3024 3024 3023 3023 3023 3022 3021 3021 3020 3019 3018 3017 3017 3016 3015 3015 3015 3014 3012 3011 3010 3009 3007 3005 3005 3005 3005 3004 3005 3004 3003 3003 3003 3002 3001 3001 2999 2999 2998 2998 2997 2997 2995
3063 3062 3060 3058 3056 3054 3052 3050 3048 3046 3044 3042 3040 3039 3037 3036 3035 3034 3032 3031 3029 3028 3028 3027 3026 3026 3026 3025 3025 3024 3024 3024 3024 3024 3024 3024 3024 3024 3024 3024 3024 3024 3024 3023 3023 3023 3022 3022 3021 3020 3020 3019 3018 3017 3016 3016 3015 3014 3012 3012 3012 3011 3009 3008 3007 3005 3003 3002 3002 3002 3000 2999 3000 3001 3000 3000 2998 2997 2996 2995 2995 2994 2994 2993 2993 2992 2991
3063 3061 3059 3058 3056 3054 3052 3049 3048 3046 3043 3042 3040 3039 3037 3036 3035 3033 3032 3030 3029 3028 3027 3026 3026 3025 3025 3024 3024 3024 3023 3023 3023 3023 3023 3023 3023 3023 3023 3023 3023 3023 3022 3022 3022 3021 3021 3020 3020 3019 3018 3017 3015 3014 3014 3013 3012 3011 3010 3010 3009 3007 3006 3005 3004 3001 2999 2999 3000 2999 2996 2993 2995 2997 2997 2995 2994 2992 2991 2991 2990 2990 2990 2988 2987 2986 2986
3061 3060 3059 3057 3055 3053 3051 3049 3047 3045 3043 3041 3040 3038 3037 3036 3034 3033 3032 3030 3028 3027 3027 3025 3025 3024 3024 3024 3024 3023 3023 3023 3023 3023 3022 3022 3023 3023 3022 3022 3022 3022 3021 3020 3020 3019 3019 3018 3018 3017 3016 3015 3013 3012 3011 3010 3009 3008 3007 3007 3007 3005 3003 3002 3001 2998 2996 2996 2997 2996 2993 2989 2990 2992 2992 2990 2989 2987 2986 2986 2986 2986 2985 2983 2982 2981 2980
3060 3059 3057 3056 3054 3052 3050 3048 3046 3044 3042 3040 3039 3038 3036 3035 3034 3032 3031 3030 3028 3027 3026 3025 3025 3024 3024 3024 3023 3023 3023 3023 3023 3023 3023 3022 3022 3022 3021 3021 3021 3020 3020 3019 3018 3018 3017 3016 3016 3015 3014 3013 3011 3009 3008 3008 3006 3005 3005 3005 3004 3002 3000 2999 2998 2995 2993 2993 2993 2992 2989 2986 2986 2987 2986 2985 2984 2983 2981 2981 2981 2980 2980 2979 2977 2976 2975
3059 3057 3056 3054 3053 3051 3049 3047 3045 3043 3041 3040 3038 3037 3035 3034 3033 3031 3030 3029 3028 3027 3026 3025 3025 3024 3024 3024 3023 3023 3023 3023 3023 3022 3022 3022 3021 3020 3020 3019 3019 3018 3018 3017 3016 3016 3015 3014 3013 3013 3012 3012 3010 3007 3006 3005 3003 3002 3003 3002 3000 2999 2998 2997 2995 2993 2990 2989 2989 2987 2985 2982 2982 2982 2981 2981 2980 2979 2977 2977 2976 2976 2975 2974 2973 2972 2971
3057 3056 3055 3053 3051 3050 3048 3046 3044 3042 3040 3039 3037 3036 3035 3033 3032 3030 3029 3028 3027 3026 3025 3025 3025 3024 3024 3024 3023 3023 3023 3023 3022 3021 3021 3020 3020 3019 3018 3017 3017 3016 3015 3015 3014 3013 3013 3012 3012 3011 3010 3010 3008 3006 3004 3003 3001 2999 3000 2999 2997 2996 2995 2993 2992 2990 2988 2986 2984 2981 2979 2979 2978 2977 2976 2977 2976 2975 2974 2973 2973 2972 2971 2970 2969 2968 2967
3056 3054 3053 3052 3050 3048 3047 3045 3043 3041 3039 3038 3037 3035 3034 3033 3031 3030 3028 3027 3026 3026 3025 3025 3024 3024 3024 3023 3023 3022 3022 3021 3021 3020 3019 3018 3018 3017 3016 3015 3015 3014 3013 3013 3012 3011 3011 3010 3010 3009 3008 3007 3006 3004 3002 3001 2999 2997 2997 2996 2994 2993 2991 2990 2988 2987 2985 2983 2980 2975 2973 2973 2974 2973 2972 2971 2972 2971 2970 2969 2969 2968 2966 2965 2965 2964 2963
3055 3053 3052 3050 3049 3047 3046 3044 3042 3040 3038 3037 3036 3034 3033 3032 3030 3029 3028 3027 3026 3026 3025 3025 3024 3024 3024 3023 3023 3022 3021 3021 3020 3019 3018 3017 3016 3015 3014 3014 3013 3012 3011 3011 3010 3009 3009 3008 3007 3007 3006 3005 3004 3002 3000 2999 2997 2995 2994 2992 2991 2989 2988 2986 2984 2982 2981 2979 2976 2971 2968 2967 2967 2968 2967 2967 2967 2967 2966 2965 2964 2963 2962 2961 2960 2960 2959
3053 3052 3050 3049 3047 3046 3044 3043 3041 3039 3037 3036 3034 3033 3032 3031 3030 3028 3027 3027 3026 3026 3026 3025 3025 3024 3024 3023 3022 3022 3021 3020 3019 3018 3016 3015 3015 3014 3013 3012 3011 3010 3010 3009 3008 3008 3007 3006 3005 3005 3004 3003 3002 3000 2998 2997 2995 2993 2991 2989 2988 2986 2984 2982 2980 2979 2977 2975 2973 2970 2967 2964 2963 2962 2963 2962 2962 2963 2962 2962 2960 2959 2958 2957 2956 2956 2955
3052 3050 3049 3047 3046 3045 3043 3042 3040 3038 3036 3035 3033 3032 3031 3030 3029 3028 3027 3027 3026 3026 3026 3026 3025 3024 3024 3023 3022 3021 3020 3019 3018 3017 3016 3014 3013 3012 3011 3010 3010 3009 3009 3008 3007 3006 3005 3005 3004 3003 3003 3002 3001 2999 2997 2995 2993 2991 2988 2986 2985 2982 2980 2978 2977 2976 2974 2972 2970 2968 2966 2963 2961 2959 2959 2959 2959 2959 2958 2958 2957 2956 2955 2954 2954 2953 2952
3051 3049 3047 3046 3045 3044 3042 3041 3039 3037 3036 3034 3032 3032 3031 3030 3029 3028 3028 3027 3027 3026 3026 3026 3025 3024 3023 3022 3021 3020 3019 3018 3017 3016 3015 3013 3012 3011 3010 3010 3009 3008 3008 3007 3006 3005 3004 3004 3003 3002 3002 3001 3000 2998 2996 2993 2990 2988 2985 2983 2981 2979 2977 2975 2974 2973 2972 2970 2968 2966 2964 2962 2960 2959 2958 2957 2957 2956 2955 2955 2955 2954 2953 2952 2952 2951 2950
3050 3048 3046 3045 3044 3043 3041 3040 3038 3036 3035 3033 3032 3031 3030 3030 3029 3028 3028 3027 3027 3026 3026 3025 3025 3024 3023 3022 3021 3020 3018 3017 3016 3015 3014 3012 3011 3010 3009 3009 3008 3007 3006 3005 3005 3005 3004 3003 3002 3002 3001 3000 2999 2997 2995 2991 2988 2985 2983 2981 2979 2977 2976 2974 2973 2972 2970 2969 2967 2965 2963 2961 2959 2958 2957 2956 2955 2954 2954 2953 2953 2952 2952 2951 2951 2950 2949
3049 3046 3045 3044 3043 3042 3040 3038 3037 3035 3034 3033 3031 3031 3030 3029 3029 3028 3028 3028 3027 3027 3026 3025 3025 3024 3023 3022 3021 3019 3018 3017 3016 3014 3013 3012 3010 3009 3009 3008 3007 3006 3005 3005 3004 3004 3003 3003 3002 3001 3000 2999 2997 2995 2992 2989 2986 2983 2981 2979 2978 2977 2975 2974 2972 2970 2969 2967 2965 2963 2961 2960 2958 2957 2956 2955 2954 2954 2953 2952 2952 2951 2951 2950 2950 2949 2949
3048 3046 3044 3042 3041 3040 3039 3037 3036 3034 3033 3032 3031 3030 3029 3029 3029 3028 3028 3028 3027 3027 3026 3025 3024 3024 3023 3022 3021 3019 3018 3017 3015 3014 3013 3011 3010 3009 3009 3008 3007 3006 3005 3004 3004 3003 3002 3002 3001 3000 2999 2997 2995 2992 2989 2986 2984 2982 2981 2979 2978 2976 2975 2973 2972 2970 2967 2965 2963 2962 2961 2960 2958 2957 2956 2955 2954 2953 2952 2951 2951 2951 2950 2950 2950 2949 2948
3048 3046 3044 3042 3040 3039 3038 3036 3035 3033 3032 3031 3030 3030 3029 3029 3029 3028 3028 3027 3027 3026 3026 3025 3024 3023 3022 3021 3020 3019 3018 3016 3015 3014 3012 3011 3010 3009 3009 3008 3007 3006 3005 3004 3003 3003 3002 3001 3000 2999 2998 2995 2993 2990 2987 2985 2983 2982 2980 2979 2978 2976 2975 2973 2971 2969 2967 2965 2964 2963 2962 2961 2959 2958 2956 2955 2955 2954 2953 2952 2952 2951 2950 2950 2950 2949 2948
3047 3045 3043 3041 3039 3038 3036 3035 3034 3033 3032 3031 3030 3030 3029 3029 3028 3028 3027 3027 3026 3025 3025 3024 3023 3023 3022 3021 3020 3018 3017 3016 3014 3013 3012 3011 3010 3009 3008 3007 3006 3005 3004 3004 3003 3002 3001 3000 2999 2998 2997 2994 2991 2989 2987 2985 2983 2982 2981 2979 2978 2976 2975 2973 2971 2969 2968 2966 2965 2964 2963 2962 2961 2959 2957 2956 2956 2956 2955 2954 2953 2952 2952 2951 2950 2949 2949
3046 3044 3042 3040 3038 3037 3035 3034 3033 3032 3031 3030 3030 3029 3029 3028 3028 3027 3026 3026 3025 3025 3024 3023 3023 3022 3021 3020 3019 3018 3016 3015 3014 3012 3011 3010 3009 3008 3008 3007 3006 3005 3004 3003 3003 3002 3001 3000 2999 2997 2996 2994 2991 2989 2987 2985 2984 2982 2981 2980 2978 2977 2976 2974 2972 2969 2968 2967 2966 2965 2965 2964 2962 2960 2959 2958 2958 2957 2957 2956 2955 2954 2953 2953 2952 2951 2951
3043 3042 3040 3038 3037 3036 3034 3033 3032 3032 3031 3030 3030 3029 3028 3027 3027 3026 3026 3025 3024 3024 3023 3023 3022 3021 3020 3019 3018 3017 3016 3014 3013 3012 3011 3010 3009 3008 3007 3006 3006 3005 3004 3003 3002 3001 3000 2999 2998 2997 2995 2993 2991 2989 2987 2986 2984 2983 2982 2980 2979 2978 2977 2975 2973 2970 2968 2967 2967 2966 2966 2965 2963 2962 2962 2961 2961 2960 2959 2958 2957 2956 2956 2955 2955 2954 2954
3042 3040 3038 3037 3036 3035 3034 3033 3032 3031 3030 3030 3029 3028 3028 3027 3026 3025 3025 3024 3023 3023 3023 3022 3021 3020 3019 3018 3017 3016 3015 3014 3013 3011 3010 3009 3008 3007 3006 3006 3005 3004 3003 3002 3001 3000 3000 2999 2998 2996 2995 2993 2991 2989 2987 2986 2985 2984 2982 2981 2979 2978 2977 2976 2974 2972 2970 2968 2968 2967 2967 2966 2966 2965 2965 2965 2964 2963 2962 2961 2960 2959 2959 2958 2957 2957 2956
3041 3039 3037 3036 3035 3034 3033 3032 3031 3030 3029 3029 3028 3027 3026 3025 3024 3024 3023 3022 3021 3021 3021 3020 3019 3019 3018 3017 3016 3015 3014 3013 3011 3010 3009 3008 3007 3007 3006 3005 3004 3003 3002 3001 3000 2999 2999 2998 2997 2995 2994 2993 2990 2989 2987 2986 2985 2984 2983 2981 2980 2979 2978 2977 2975 2974 2972 2970 2969 2969 2968 2969 2969 2968 2968 2967 2967 2966 2965 2964 2963 2963 2962 2961 2960 2959 2958
3039 3038 3036 3034 3033 3032 3031 3031 3030 3029 3028 3027 3026 3025 3024 3023 3022 3021 3021 3020 3019 3019 3019 3018 3017 3017 3016 3015 3015 3014 3013 3011 3010 3009 3008 3007 3006 3006 3005 3004 3003 3002 3001 3000 2999 2999 2998 2997 2996 2994 2993 2992 2990 2989 2988 2987 2986 2985 2983 2982 2981 2980 2979 2978 2977 2976 2974 2973 2972 2972 2972 2971 2971 2971 2970 2970 2969 2968 2967 2966 2966 2966 2966 2965 2963 2962 2962
3038 3036 3034 3033 3032 3031 3030 3029 3029 3028 3027 3026 3024 3023 3022 3021 3020 3019 3018 3017 3017 3017 3017 3016 3015 3015 3015 3014 3013 3012 3011 3010 3009 3008 3007 3006 3005 3005 3004 3003 3002 3001 3000 2999 2998 2998 2997 2996 2994 2993 2992 2991 2990 2989 2988 2987 2987 2986 2984 2983 2982 2981 2980 2979 2978 2977 2976 2976 2975 2975 2975 2974 2974 2973 2973 2972 2971 2970 2970 2969 2969 2969 2968 2967 2966 2966 2966
3036 3035 3033 3032 3030 3029 3028 3027 3027 3026 3025 3024 3022 3021 3020 3018 3018 3017 3016 3015 3014 3015 3015 3014 3014 3013 3013 3012 3011 3010 3010 3009 3008 3007 3006 3005 3004 3003 3003 3002 3001 3000 2999 2998 2997 2996 2995 2994 2993 2992 2992 2991 2990 2988 2988 2987 2987 2987 2985 2984 2983 2982 2981 2980 2980 2979 2979 2978 2978 2978 2977 2977 2976 2976 2975 2975 2974 2973 2973 2972 2972 2971 2971 2970 2969 2969 2969
3034 3033 3032 3030 3029 3027 3026 3025 3025 3024 3023 3022 3020 3019 3017 3016 3015 3014 3013 3012 3012 3013 3012 3012 3012 3011 3010 3010 3009 3008 3008 3007 3006 3005 3004 3004 3003 3002 3001 3000 2999 2998 2997 2997 2996 2995 2994 2992 2991 2991 2990 2990 2989 2988 2987 2987 2987 2987 2986 2985 2984 2983 2982 2981 2981 2981 2980 2980 2980 2980 2980 2979 2979 2978 2978 2977 2977 2976 2976 2975 2974 2974 2973 2973 2972 2972 2971
3032 3031 3030 3028 3027 3025 3024 3023 3022 3022 3021 3020 3019 3017 3015 3014 3013 3012 3011 3010 3010 3010 3010 3010 3009 3009 3008 3008 3007 3006 3005 3005 3004 3003 3003 3002 3001 3000 2999 2998 2997 2996 2996 2995 2994 2993 2992 2991 2990 2989 2989 2989 2988 2987 2986 2987 2987 2987 2987 2986 2985 2984 2984 2983 2982 2982 2982 2982 2982 2982 2981 2981 2981 2980 2980 2980 2980 2979 2978 2978 2977 2976 2976 2975 2975 2975 2974
3030 3028 3027 3026 3024 3023 3021 3020 3019 3019 3018 3018 3017 3015 3013 3012 3011 3010 3009 3008 3008 3008 3008 3008 3007 3006 3006 3005 3005 3004 3003 3002 3002 3001 3000 3000 2999 2998 2996 2995 2995 2994 2994 2993 2992 2991 2990 2989 2988 2987 2987 2987 2986 2986 2985 2985 2986 2987 2987 2986 2985 2985 2985 2984 2983 2983 2983 2983 2983 2983 2983 2983 2983 2982 2982 2982 2981 2981 2981 2980 2979 2978 2978 2977 2977 2977 2976
3027 3025 3024 3024 3022 3020 3018 3018 3017 3016 3015 3014 3014 3012 3011 3010 3009 3008 3007 3006 3005 3006 3005 3005 3004 3004 3003 3003 3002 3001 3001 3000 2999 2998 2997 2997 2996 2995 2994 2993 2993 2992 2991 2991 2990 2989 2988 2987 2986 2985 2985 2985 2985 2984 2984 2984 2985 2986 2987 2986 2985 2985 2985 2985 2984 2984 2983 2983 2984 2984 2984 2984 2984 2983 2983 2983 2983 2983 2982 2982 2981 2980 2980 2979 2979 2978 2977